This is the latest recevied weather packets stored in our database for station/object W1BKW. If no packets are shown the sender has not sent any weather packets the latest 10 day(s).
| Time | Temp. | Humidity | Pressure | Rain* | Wind** | Luminosity | Snow |
|---|---|---|---|---|---|---|---|
| 1777554678 | 6.67° C | 99% | 1008.1 hPa | 0 mm | - | 69 W/m² | - |
| 1777553774 | 6.67° C | 99% | 1008.1 hPa | 0 mm | - | 81 W/m² | - |
| 1777552874 | 6.67° C | 99% | 1008.1 hPa | 0 mm | - | 71 W/m² | - |
| 1777551968 | 6.67° C | 99% | 1008.3 hPa | 0 mm | - | 59 W/m² | - |
| 1777551065 | 6.11° C | 99% | 1008.4 hPa | 0 mm | - | 43 W/m² | - |
| 1777550160 | 6.11° C | 99% | 1008.7 hPa | 0 mm | - | 27 W/m² | - |
| 1777549260 | 6.11° C | 99% | 1008.6 hPa | 0 mm | - | 35 W/m² | - |
| 1777548357 | 6.11° C | 99% | 1008.5 hPa | 1.27 mm | - | 33 W/m² | - |
| 1777547452 | 5.56° C | 99% | 1008.8 hPa | 1.78 mm | - | 23 W/m² | - |
| 1777546549 | 5.56° C | 99% | 1008.6 hPa | 0 mm | - | 24 W/m² | - |
| 1777545645 | 5.56° C | 99% | 1008.5 hPa | 3.56 mm | - | 5 W/m² | - |
| 1777544742 | 5.56° C | 99% | 1008.4 hPa | 4.83 mm | - | 2 W/m² | - |
| 1777543838 | 5.56° C | 99% | 1008 hPa | 4.83 mm | - | 0 W/m² | - |
| 1777542937 | 5.56° C | 99% | 1008.2 hPa | 3.56 mm | - | 0 W/m² | - |
| 1777542033 | 5.56° C | 99% | 1008.1 hPa | 3.05 mm | - | 0 W/m² | - |
| 1777541129 | 5.56° C | 99% | 1008.8 hPa | 1.27 mm | - | 0 W/m² | - |
| 1777540226 | 5.56° C | 99% | 1008.8 hPa | 3.05 mm | - | 0 W/m² | - |
| 1777539326 | 5.56° C | 99% | 1008.7 hPa | 3.05 mm | - | 0 W/m² | - |
| 1777538425 | 5.56° C | 99% | 1008.7 hPa | 0 mm | - | 0 W/m² | - |
| 1777537525 | 5.56° C | 99% | 1008.9 hPa | 1.78 mm | - | 0 W/m² | - |
| 1777536621 | 5.56° C | 99% | 1009.1 hPa | 0 mm | - | 0 W/m² | - |
| 1777535715 | 5.56° C | 99% | 1009.3 hPa | 1.78 mm | - | 0 W/m² | - |
| 1777534812 | 5.56° C | 99% | 1009.3 hPa | 0 mm | - | 0 W/m² | - |
| 1777533909 | 5.56° C | 99% | 1009.4 hPa | 1.27 mm | - | 0 W/m² | - |
| 1777533004 | 5.56° C | 99% | 1009.8 hPa | 0 mm | - | 0 W/m² | - |
* Rain latest hour (hover to see other rain measurements)
** Current wind speed in m/s (hover to see current wind gust speed)